Regional Weather Roundup
Issued by NWS

Home | Current Version | Previous Version | Text Only | Print | Product List | Glossary On
Versions: 1 2 3 4 5 6 7 8 9 10 11 12 13 14 15 16 17 18 19 20 21 22 23 24 25 26 27 28 29 30 31 32 33 34 35 36 37 38 39 40 41 42 43 44 45 46 47 48 49 50
000
ASUS44 KOUN 070010
RWROK

WEATHER ROUNDUP FOR OKLAHOMA
NATIONAL WEATHER SERVICE NORMAN OK
700 PM CDT WED MAY 06 2015

NOTE: "FAIR" INDICATES FEW OR NO CLOUDS BELOW 12,000 FEET WITH NO
      SIGNIFICANT WEATHER AND/OR OBSTRUCTIONS TO VISIBILITY.

OKZ001>007-009>012-014-015-017-070100-
NORTHWEST OKLAHOMA AND THE PANHANDLE

CITY           SKY/WX    TMP DP  RH WIND       PRES   REMARKS
GAGE           SUNNY     81  52  36 SW28G33   29.67F
6HR MIN TEMP:  76; 6HR MAX TEMP:  83;

GUYMON         MOSUNNY   79  48  33 SW20G30   29.63R
ENID/WOODRING  PTSUNNY   73  66  78 SE23G30   29.72F
$$

OKZ016-021>023-033>039-044-045-070100-
SOUTHWEST OKLAHOMA

CITY           SKY/WX    TMP DP  RH WIND       PRES   REMARKS
LAWTON/REGL    PTSUNNY   77  67  71 S15       29.75R
6HR MIN TEMP:  77; 6HR MAX TEMP:  83; 6HR PCP: TRACE;

LAWTON/FT SILL PTSUNNY   77  69  76 S17G25    29.75R
FREDERICK      PTSUNNY   78  67  68 S16G24    29.72R
CLINTON        MOSUNNY   80  61  52 S17G26    29.71F
HOBART         SUNNY     80  67  64 S15G28    29.72S
ALTUS AFB      MOSUNNY   74  58  57 S20G44    29.73R
$$

OKZ018>020-024>031-070100-
CENTRAL OKLAHOMA

CITY           SKY/WX    TMP DP  RH WIND       PRES   REMARKS
OKLAHOMA CITY  HAIL      66  63  88 NE12      29.82R VSB 3/4
6HR MIN TEMP:  60; 6HR MAX TEMP:  76; 6HR PCP:  0.49;

OKC/WILEY POST TSTM      70  63  78 SE24G32   29.77F
OKC/TINKER AFB TSTM      64  60  86 E14G25    29.81F
STILLWATER     MOSUNNY   75  66  73 SE22G32   29.77F
GUTHRIE        PTSUNNY   75  66  73 S23G31    29.77F
$$

OKZ008-013-054>072-070100-
NORTHEAST OKLAHOMA

CITY           SKY/WX    TMP DP  RH WIND       PRES   REMARKS
TULSA          CLOUDY    75  64  68 SE18G26   29.82F
6HR MIN TEMP:  73; 6HR MAX TEMP:  79;

TULSA/JONES    CLOUDY    74  64  71 S12       29.84F
PONCA CITY     CLOUDY    74  66  76 S21G28    29.76S
BARTLESVILLE   PTSUNNY   75  65  70 S14G28    29.83F
MUSKOGEE       CLOUDY    74  63  68 S9        29.89F
$$

OKZ032-040>043-046>053-073>077-070100-
SOUTH CENTRAL/SOUTHEAST OKLAHOMA

CITY           SKY/WX    TMP DP  RH WIND       PRES   REMARKS
ARDMORE/DWNTWN MOSUNNY   75  64  69 SE9       29.82S
MCALESTER      MOSUNNY   77  65  66 SE7       29.89S
$$



USA.gov is the U.S. government's official web portal to all federal, state and local government web resources and services.